SCP
0 1 0 1 1 1 1 1 1 1 1 0 0 0 0 0 1 1 1 1 1 1 1 1 1 1 0 0 0 0 0 0 0 0 0 0 0 0 0 0 0 0 0
1 1 1 1 1 1 1 1 0 0 0 0 0 0 1 1 0 0 0 0 0 0 0 0 0 0 0 0 0 0 0 0 0 0 0 0 0 0 0 0 0 0 0
1 1 1 1 1 1 0 0 0 0 0 0 0 0 0 0 0 0 0 0 0 0 0 0 0 0 0 0 0 0 0 0 0 0 0 0 0 0 0 0 0 0 0
1 1 1 1 0 0 0 0 0 0 0 0 0 0 0 0 0 0 0 0 0 0 0 0 0 0 0 0 0 0 0 0 0 0 0 0 0 0 0 0 0 0 0
1 1 1 0 0 0 0 0 0 0 0 0 0 0 0 0 0 0 0 0 0 0 0 0 0 0 0 0 0 0 0 0 0 0 0 0 0 0 0 0 1 1 0
0 0 0 0 0 0 0 0 0 0 0 0 0 0 0 0 0 0 0 0 0 0 0 0 0 0 0 0 0 0 0 0 0 0 0 0 0 0 0 0 0 0 0
0 0 0 0 0 0 0 0 0 0 0 0 0 0 0 0 0 0 0 0 0 0 0 0 0 0 0 0 0 0 0 0 0 0 0 0 0 0 0 0 0 0 0
0 0 0 0 0 0 0 0 0 0 0 0 0 0 0 0 0 0 0 0 0 0 0 0 0 0 0 0 0 0 0 0 0 0 0 0 0 0 0 0 0 0 0
0 0 0 0 0 0 0 0 0 0 0 0 0 0 0 0 0 0 0 0 0 0 0 0 0 0 0 0 0 0 0 0 0 0 0 0 0 0 0 0 0 0 -0
0 0 0 0 0 0 0 0 0 0 0 0 0 0 0 0 0 0 0 0 0 0 0 0 0 0 0 0 0 0 0 0 0 0 -0 0 0 0 0 0 0 0 0
0 0 0 0 0 0 0 0 0 0 0 0 0 0 0 0 0 0 0 0 0 0 0 0 0 0 0 0 0 0 0 0 -0 -0 0 0 0 0 0 0 0 0 -0
0 0 0 0 0 0 0 0 0 0 0 0 0 0 0 0 0 0 0 0 0 0 0 0 0 0 0 0 0 0 0 -0 -0 0 0 0 0 0 0 0 0 0 0
0 0 0 0 0 0 0 0 0 0 0 0 0 0 0 0 0 0 0 0 0 0 0 0 0 0 0 0 0 0 0 0 -0 0 0 0 0 0 0 0 0 0 -0
0 0 0 0 0 0 0 0 0 0 0 0 0 0 0 0 0 0 0 0 0 0 0 0 0 0 0 0 0 0 -0 -0 0 0 0 0 0 0 0 0 0 -0 0
0 0 0 0 0 0 0 0 0 0 0 0 0 0 0 0 0 0 0 0 0 -0 -0 -0 -0 -0 0 0 0 0 -0 -0 0 0 0 0 0 0 0 0 0 -0 0
0 0 0 0 0 0 0 0 0 0 0 0 0 0 0 0 0 0 0 0 0 -0 -0 0 0 0 -0 -0 0 0 -0 -0 0 0 0 0 0 0 0 0 -0 0 0
0 0 0 0 0 0 0 0 0 0 0 0 0 0 0 0 0 0 0 0 0 0 -0 -0 -0 -0 0 0 0 -0 -0 -0 -0 0 0 0 0 0 0 0 0 -0 0
0 0 0 0 0 0 0 0 0 0 0 0 0 0 0 0 0 0 0 0 0 0 0 0 0 0 0 0 -0 -0 -0 -0 -0 -0 0 0 0 0 0 0 0 0 0
0 0 0 0 0 0 0 0 0 0 0 0 0 0 0 0 0 0 0 0 0 0 0 0 0 0 -0 -0 -0 0 0 -0 -0 -0 0 0 0 0 0 0 0 0 0
0 0 0 0 0 0 0 0 0 0 0 0 0 0 0 0 0 0 0 0 0 0 0 0 0 -0 0 0 0 -0 -0 -0 -0 -0 0 0 0 0 0 0 0 0 0
0 0 0 0 0 0 0 0 0 0 0 0 0 0 0 0 0 0 0 0 0 0 0 0 0 0 0 0 0 0 0 0 -0 -0 -0 0 0 0 0 0 0 0 0
0 0 0 0 0 0 0 0 0 0 0 0 0 0 0 0 0 0 0 0 0 0 0 0 0 0 0 0 0 0 0 0 0 0 0 0 0 0 0 -0 -0 -0 0
0 0 0 0 0 0 0 0 0 0 0 0 0 0 0 0 0 0 0 0 0 0 0 0 0 0 0 0 0 0 0 0 0 0 0 0 0 0 0 -0 -0 -0 -0
0 0 0 0 0 0 0 0 0 0 0 0 0 0 0 0 0 0 0 0 0 0 0 0 0 0 0 0 0 0 0 0 0 0 0 0 0 -0 0 0 -0 -0 -0
0 0 0 0 0 0 0 0 0 0 0 0 0 0 0 0 0 0 0 0 0 0 0 0 0 0 0 0 0 0 0 0 0 0 0 0 -0 -0 -0 -0 -0 0 0
0 0 0 0 0 0 0 0 0 0 0 0 0 0 0 0 0 0 0 0 0 0 0 0 0 -0 -0 -0 -0 -0 0 0 0 0 0 0 0 0 0 0 0 -0 0
Wind_Speed_500mb
55 53 50 48 46 46 50 53 53 55 50 53 55 60 64 62 53 53 49 45 44 48 51 55 57 58 50 47 44 46 51 56 72 69 58 53 58 63 56 53 49 52 55
56 55 51 47 47 44 45 50 52 54 52 56 63 69 66 48 36 37 41 47 52 55 58 58 57 49 51 45 42 49 54 57 62 77 66 64 62 61 60 59 54 48 51
43 42 42 43 40 39 40 46 51 51 55 61 60 42 33 34 40 47 52 56 56 54 51 50 48 46 45 45 50 53 54 56 58 71 73 72 67 54 60 62 58 55 50
30 29 29 32 32 36 40 37 39 40 31 27 29 32 37 42 46 50 51 49 46 43 46 49 52 54 57 62 57 53 56 59 59 63 67 66 65 58 66 65 62 44 41
21 21 22 27 30 29 27 24 23 25 30 35 38 42 44 44 32 44 45 43 45 48 52 57 60 65 66 60 58 53 53 54 58 60 59 64 71 62 62 53 54 47 44
23 24 21 16 11 11 15 21 28 34 39 41 43 43 40 30 40 42 43 46 51 56 59 60 63 59 51 52 51 49 47 46 51 55 66 66 64 55 46 49 55 56 49
22 18 13 9 10 17 25 31 36 38 37 37 36 37 37 38 41 46 50 55 58 56 58 58 56 51 50 51 49 46 52 50 54 57 56 55 54 49 43 45 49 54 57
21 15 8 11 18 27 32 35 36 36 36 37 35 35 36 42 47 54 58 62 60 57 57 61 64 61 50 55 56 59 47 54 55 40 36 45 41 41 41 49 54 66 66
17 11 12 19 25 30 34 36 36 36 36 37 40 42 43 47 54 60 64 65 61 55 55 60 59 52 51 55 60 58 56 44 38 38 40 42 40 46 44 51 71 60 71
11 11 18 26 32 35 35 34 34 35 37 38 41 43 45 46 51 56 57 56 53 53 52 57 44 47 57 61 62 44 35 33 40 38 41 48 42 34 31 50 60 79 94
10 19 26 31 33 30 29 29 29 32 36 40 38 38 42 45 51 51 51 47 47 50 51 50 43 49 51 54 29 13 27 37 45 48 48 47 48 38 37 69 85 88 80
19 24 27 26 23 21 20 21 25 30 31 33 39 38 38 46 44 42 45 42 41 46 47 45 40 56 44 39 27 35 33 41 37 38 41 45 54 53 50 86 86 81 78
18 17 16 13 13 13 13 19 25 29 31 30 31 34 38 42 45 47 45 47 43 45 49 48 48 42 35 28 22 27 33 28 35 38 47 52 61 52 53 86 97 100 84
6 7 5 6 10 13 17 20 19 22 24 25 30 37 40 42 47 51 52 50 52 52 51 50 46 38 29 21 26 25 31 32 37 43 48 52 55 58 50 77 100 107 86
0 3 3 4 8 12 15 19 21 24 27 32 37 40 43 44 47 48 49 48 48 48 45 44 39 39 35 29 25 26 33 39 42 44 49 56 58 67 60 70 92 112 86
10 11 7 6 9 11 12 16 21 25 30 33 36 37 39 40 40 40 38 34 41 42 42 47 45 52 52 50 46 46 45 46 48 49 50 54 59 64 69 63 82 96 94
17 14 9 9 13 13 15 15 15 24 30 34 37 37 35 37 37 37 37 32 32 34 40 43 47 43 48 47 48 47 48 48 50 49 51 52 54 58 68 63 72 88 98
12 10 8 7 9 10 13 15 18 22 22 28 36 35 33 35 33 32 31 32 31 37 45 48 47 42 39 45 46 46 49 48 50 51 52 52 52 57 63 70 66 75 88
12 12 6 0 2 5 11 16 19 21 26 27 25 28 31 30 31 31 30 30 37 41 45 46 46 48 46 46 48 51 51 51 51 51 51 52 54 55 60 65 67 62 78
19 13 5 6 8 6 11 11 12 19 22 22 25 29 36 31 26 29 33 35 37 39 42 45 45 45 45 48 51 51 53 54 54 54 54 54 54 55 55 63 66 63 60
20 12 5 9 11 9 10 9 10 15 15 18 22 30 34 27 25 27 30 34 38 41 42 45 48 51 52 51 51 53 54 55 54 54 54 56 56 57 53 49 53 58 63
19 12 7 9 11 12 13 11 8 7 12 14 19 23 23 23 24 25 29 33 37 41 43 46 47 50 51 52 51 51 52 53 54 54 55 54 55 53 51 49 49 50 54
19 12 7 6 9 11 14 8 4 4 6 13 15 15 16 20 22 27 30 33 37 40 43 45 47 49 51 51 49 49 51 52 52 51 53 51 51 53 49 49 49 49 50
17 9 7 6 7 7 6 5 3 2 2 9 10 12 15 18 22 27 30 33 35 39 43 47 49 49 50 51 51 48 48 49 48 48 45 48 44 47 45 46 48 48 47
14 9 7 7 7 7 6 5 4 4 3 3 7 10 13 16 19 23 26 30 34 38 41 45 49 49 50 50 48 43 40 40 43 44 43 39 40 44 44 44 46 43 45
12 9 10 11 9 8 6 7 6 6 5 6 8 7 10 13 17 22 25 30 33 37 41 45 49 49 51 52 51 43 38 35 35 37 39 36 38 42 43 44 47 43 43
Wind_Direction_500mb
247 250 255 258 261 272 269 269 274 277 273 279 294 296 301 295 293 295 302 308 309 306 307 307 306 307 305 303 301 299 297 296 292 298 298 296 296 300 297 296 292 288 289
249 254 259 264 260 275 270 268 275 275 277 285 294 294 299 300 305 310 312 314 313 311 312 309 310 311 310 310 307 302 299 297 295 297 301 300 298 300 297 298 293 287 282
259 262 262 262 262 267 268 273 279 284 286 290 295 303 310 312 312 315 316 314 312 313 314 316 316 314 311 309 308 305 302 300 298 298 300 303 303 298 301 298 291 289 287
248 252 254 252 254 265 272 282 291 291 293 304 315 321 319 318 317 315 315 315 315 316 320 320 317 315 315 315 311 307 306 304 304 301 303 307 308 301 301 298 296 289 285
215 218 227 245 257 271 281 280 283 306 323 326 325 323 322 322 316 316 317 318 319 321 322 320 316 313 315 317 315 311 306 305 308 310 308 312 313 315 294 295 294 303 299
209 222 226 245 253 267 285 308 320 322 322 320 320 321 325 326 317 316 319 321 322 323 322 320 321 324 320 316 317 313 308 306 308 310 317 312 309 313 318 313 309 304 299
193 200 203 220 277 305 312 315 314 314 319 325 328 327 327 319 319 318 319 320 324 325 326 329 331 329 331 319 314 313 319 318 312 311 313 308 306 311 315 317 311 306 302
183 188 219 274 292 299 306 316 324 329 330 332 332 330 326 320 321 322 326 326 328 329 327 324 327 328 325 322 315 311 316 318 321 318 324 319 315 312 311 315 314 309 300
182 213 259 290 303 317 322 323 325 328 330 332 331 329 328 326 327 326 325 323 324 326 323 320 322 323 319 323 318 309 310 320 329 322 318 320 320 313 306 307 316 306 297
212 271 303 316 317 317 316 319 324 328 330 331 328 325 325 325 324 326 325 327 329 327 326 332 337 328 324 327 313 303 308 325 324 324 317 320 325 323 331 327 317 307 300
294 312 307 307 306 309 315 321 327 330 331 331 328 327 325 325 327 327 330 337 337 337 340 340 339 337 339 328 317 323 314 319 314 320 327 334 329 318 321 332 328 328 309
285 293 302 305 311 320 322 322 325 327 332 337 334 333 334 333 333 338 344 343 337 343 346 340 331 326 332 340 354 351 330 319 322 337 346 346 343 340 332 344 342 339 333
278 297 305 320 339 339 323 318 317 319 327 336 342 343 344 346 345 342 345 343 344 347 347 337 334 328 323 326 337 327 334 345 354 347 350 349 345 335 343 353 351 347 344
295 321 332 360 348 343 337 339 345 355 2 352 348 349 349 350 346 344 345 342 346 344 344 342 339 342 337 349 347 335 341 354 352 350 349 347 349 345 340 350 354 356 340
357 153 116 24 355 350 353 7 12 6 1 357 355 354 349 344 345 349 348 341 343 346 348 339 352 359 4 13 1 354 351 354 351 348 345 345 349 352 350 358 4 4 344
141 137 128 92 45 41 43 23 21 17 11 4 359 355 351 348 352 354 352 337 339 347 349 357 1 7 4 6 4 2 359 356 351 349 347 351 350 355 357 360 7 10 355
142 138 134 85 56 45 45 42 43 19 13 6 4 3 359 358 357 354 352 349 345 347 3 358 1 4 1 359 5 3 0 360 357 356 355 356 352 360 5 3 4 10 8
151 155 142 90 54 38 36 28 23 17 16 8 4 6 3 360 359 353 359 353 4 3 4 2 3 4 1 5 7 6 6 4 1 2 3 1 359 3 8 8 8 13 16
183 195 189 166 7 356 7 5 7 8 8 1 358 359 2 2 5 4 9 7 2 3 3 4 7 9 9 10 11 12 10 10 9 7 7 7 5 7 11 12 12 22 26
189 193 191 250 261 307 324 339 346 357 3 358 354 351 355 1 356 2 9 9 10 14 16 17 13 13 13 14 16 14 13 12 13 13 11 12 10 7 4 11 14 18 23
189 182 198 230 230 260 280 294 316 344 356 353 352 349 356 3 7 12 17 20 24 23 21 20 18 20 18 16 15 16 14 14 14 15 15 13 12 9 3 1 5 11 22
182 187 232 205 221 260 271 277 296 322 344 352 349 356 15 29 35 35 34 31 28 26 23 22 18 18 15 14 12 12 13 12 11 13 17 16 14 4 2 360 1 3 11
174 201 241 210 216 252 275 261 258 299 340 349 355 11 35 44 45 44 39 34 31 27 23 20 18 15 12 10 9 7 8 10 10 11 13 16 10 3 1 2 3 4 5
188 198 192 177 218 236 214 212 213 174 44 355 15 46 41 45 46 40 37 33 28 25 23 21 18 14 10 8 7 7 7 3 6 14 13 20 2 1 1 4 5 5 7
201 209 200 187 220 210 188 161 152 150 109 101 74 55 49 40 38 37 33 30 28 26 22 21 18 16 15 13 10 6 4 5 7 13 14 12 6 5 10 9 8 8 10
221 228 208 211 216 211 193 191 183 175 144 126 90 61 48 37 29 29 29 28 26 23 21 19 17 16 16 12 10 10 11 9 14 14 22 13 13 13 18 15 15 17 17
Wind_Speed_850mb
55 53 50 48 46 46 50 53 53 55 50 53 55 60 64 62 53 53 49 45 44 48 51 55 57 58 50 47 44 46 51 56 72 69 58 53 58 63 56 53 49 52 55
56 55 51 47 47 44 45 50 52 54 52 56 63 69 66 48 36 37 41 47 52 55 58 58 57 49 51 45 42 49 54 57 62 77 66 64 62 61 60 59 54 48 51
43 42 42 43 40 39 40 46 51 51 55 61 60 42 33 34 40 47 52 56 56 54 51 50 48 46 45 45 50 53 54 56 58 71 73 72 67 54 60 62 58 55 50
30 29 29 32 32 36 40 37 39 40 31 27 29 32 37 42 46 50 51 49 46 43 46 49 52 54 57 62 57 53 56 59 59 63 67 66 65 58 66 65 62 44 41
21 21 22 27 30 29 27 24 23 25 30 35 38 42 44 44 32 44 45 43 45 48 52 57 60 65 66 60 58 53 53 54 58 60 59 64 71 62 62 53 54 47 44
23 24 21 16 11 11 15 21 28 34 39 41 43 43 40 30 40 42 43 46 51 56 59 60 63 59 51 52 51 49 47 46 51 55 66 66 64 55 46 49 55 56 49
22 18 13 9 10 17 25 31 36 38 37 37 36 37 37 38 41 46 50 55 58 56 58 58 56 51 50 51 49 46 52 50 54 57 56 55 54 49 43 45 49 54 57
21 15 8 11 18 27 32 35 36 36 36 37 35 35 36 42 47 54 58 62 60 57 57 61 64 61 50 55 56 59 47 54 55 40 36 45 41 41 41 49 54 66 66
17 11 12 19 25 30 34 36 36 36 36 37 40 42 43 47 54 60 64 65 61 55 55 60 59 52 51 55 60 58 56 44 38 38 40 42 40 46 44 51 71 60 71
11 11 18 26 32 35 35 34 34 35 37 38 41 43 45 46 51 56 57 56 53 53 52 57 44 47 57 61 62 44 35 33 40 38 41 48 42 34 31 50 60 79 94
10 19 26 31 33 30 29 29 29 32 36 40 38 38 42 45 51 51 51 47 47 50 51 50 43 49 51 54 29 13 27 37 45 48 48 47 48 38 37 69 85 88 80
19 24 27 26 23 21 20 21 25 30 31 33 39 38 38 46 44 42 45 42 41 46 47 45 40 56 44 39 27 35 33 41 37 38 41 45 54 53 50 86 86 81 78
18 17 16 13 13 13 13 19 25 29 31 30 31 34 38 42 45 47 45 47 43 45 49 48 48 42 35 28 22 27 33 28 35 38 47 52 61 52 53 86 97 100 84
6 7 5 6 10 13 17 20 19 22 24 25 30 37 40 42 47 51 52 50 52 52 51 50 46 38 29 21 26 25 31 32 37 43 48 52 55 58 50 77 100 107 86
0 3 3 4 8 12 15 19 21 24 27 32 37 40 43 44 47 48 49 48 48 48 45 44 39 39 35 29 25 26 33 39 42 44 49 56 58 67 60 70 92 112 86
10 11 7 6 9 11 12 16 21 25 30 33 36 37 39 40 40 40 38 34 41 42 42 47 45 52 52 50 46 46 45 46 48 49 50 54 59 64 69 63 82 96 94
17 14 9 9 13 13 15 15 15 24 30 34 37 37 35 37 37 37 37 32 32 34 40 43 47 43 48 47 48 47 48 48 50 49 51 52 54 58 68 63 72 88 98
12 10 8 7 9 10 13 15 18 22 22 28 36 35 33 35 33 32 31 32 31 37 45 48 47 42 39 45 46 46 49 48 50 51 52 52 52 57 63 70 66 75 88
12 12 6 0 2 5 11 16 19 21 26 27 25 28 31 30 31 31 30 30 37 41 45 46 46 48 46 46 48 51 51 51 51 51 51 52 54 55 60 65 67 62 78
19 13 5 6 8 6 11 11 12 19 22 22 25 29 36 31 26 29 33 35 37 39 42 45 45 45 45 48 51 51 53 54 54 54 54 54 54 55 55 63 66 63 60
20 12 5 9 11 9 10 9 10 15 15 18 22 30 34 27 25 27 30 34 38 41 42 45 48 51 52 51 51 53 54 55 54 54 54 56 56 57 53 49 53 58 63
19 12 7 9 11 12 13 11 8 7 12 14 19 23 23 23 24 25 29 33 37 41 43 46 47 50 51 52 51 51 52 53 54 54 55 54 55 53 51 49 49 50 54
19 12 7 6 9 11 14 8 4 4 6 13 15 15 16 20 22 27 30 33 37 40 43 45 47 49 51 51 49 49 51 52 52 51 53 51 51 53 49 49 49 49 50
17 9 7 6 7 7 6 5 3 2 2 9 10 12 15 18 22 27 30 33 35 39 43 47 49 49 50 51 51 48 48 49 48 48 45 48 44 47 45 46 48 48 47
14 9 7 7 7 7 6 5 4 4 3 3 7 10 13 16 19 23 26 30 34 38 41 45 49 49 50 50 48 43 40 40 43 44 43 39 40 44 44 44 46 43 45
12 9 10 11 9 8 6 7 6 6 5 6 8 7 10 13 17 22 25 30 33 37 41 45 49 49 51 52 51 43 38 35 35 37 39 36 38 42 43 44 47 43 43
Wind_Direction_850mb
247 250 255 258 261 272 269 269 274 277 273 279 294 296 301 295 293 295 302 308 309 306 307 307 306 307 305 303 301 299 297 296 292 298 298 296 296 300 297 296 292 288 289
249 254 259 264 260 275 270 268 275 275 277 285 294 294 299 300 305 310 312 314 313 311 312 309 310 311 310 310 307 302 299 297 295 297 301 300 298 300 297 298 293 287 282
259 262 262 262 262 267 268 273 279 284 286 290 295 303 310 312 312 315 316 314 312 313 314 316 316 314 311 309 308 305 302 300 298 298 300 303 303 298 301 298 291 289 287
248 252 254 252 254 265 272 282 291 291 293 304 315 321 319 318 317 315 315 315 315 316 320 320 317 315 315 315 311 307 306 304 304 301 303 307 308 301 301 298 296 289 285
215 218 227 245 257 271 281 280 283 306 323 326 325 323 322 322 316 316 317 318 319 321 322 320 316 313 315 317 315 311 306 305 308 310 308 312 313 315 294 295 294 303 299
209 222 226 245 253 267 285 308 320 322 322 320 320 321 325 326 317 316 319 321 322 323 322 320 321 324 320 316 317 313 308 306 308 310 317 312 309 313 318 313 309 304 299
193 200 203 220 277 305 312 315 314 314 319 325 328 327 327 319 319 318 319 320 324 325 326 329 331 329 331 319 314 313 319 318 312 311 313 308 306 311 315 317 311 306 302
183 188 219 274 292 299 306 316 324 329 330 332 332 330 326 320 321 322 326 326 328 329 327 324 327 328 325 322 315 311 316 318 321 318 324 319 315 312 311 315 314 309 300
182 213 259 290 303 317 322 323 325 328 330 332 331 329 328 326 327 326 325 323 324 326 323 320 322 323 319 323 318 309 310 320 329 322 318 320 320 313 306 307 316 306 297
212 271 303 316 317 317 316 319 324 328 330 331 328 325 325 325 324 326 325 327 329 327 326 332 337 328 324 327 313 303 308 325 324 324 317 320 325 323 331 327 317 307 300
294 312 307 307 306 309 315 321 327 330 331 331 328 327 325 325 327 327 330 337 337 337 340 340 339 337 339 328 317 323 314 319 314 320 327 334 329 318 321 332 328 328 309
285 293 302 305 311 320 322 322 325 327 332 337 334 333 334 333 333 338 344 343 337 343 346 340 331 326 332 340 354 351 330 319 322 337 346 346 343 340 332 344 342 339 333
278 297 305 320 339 339 323 318 317 319 327 336 342 343 344 346 345 342 345 343 344 347 347 337 334 328 323 326 337 327 334 345 354 347 350 349 345 335 343 353 351 347 344
295 321 332 360 348 343 337 339 345 355 2 352 348 349 349 350 346 344 345 342 346 344 344 342 339 342 337 349 347 335 341 354 352 350 349 347 349 345 340 350 354 356 340
357 153 116 24 355 350 353 7 12 6 1 357 355 354 349 344 345 349 348 341 343 346 348 339 352 359 4 13 1 354 351 354 351 348 345 345 349 352 350 358 4 4 344
141 137 128 92 45 41 43 23 21 17 11 4 359 355 351 348 352 354 352 337 339 347 349 357 1 7 4 6 4 2 359 356 351 349 347 351 350 355 357 360 7 10 355
142 138 134 85 56 45 45 42 43 19 13 6 4 3 359 358 357 354 352 349 345 347 3 358 1 4 1 359 5 3 0 360 357 356 355 356 352 360 5 3 4 10 8
151 155 142 90 54 38 36 28 23 17 16 8 4 6 3 360 359 353 359 353 4 3 4 2 3 4 1 5 7 6 6 4 1 2 3 1 359 3 8 8 8 13 16
183 195 189 166 7 356 7 5 7 8 8 1 358 359 2 2 5 4 9 7 2 3 3 4 7 9 9 10 11 12 10 10 9 7 7 7 5 7 11 12 12 22 26
189 193 191 250 261 307 324 339 346 357 3 358 354 351 355 1 356 2 9 9 10 14 16 17 13 13 13 14 16 14 13 12 13 13 11 12 10 7 4 11 14 18 23
189 182 198 230 230 260 280 294 316 344 356 353 352 349 356 3 7 12 17 20 24 23 21 20 18 20 18 16 15 16 14 14 14 15 15 13 12 9 3 1 5 11 22
182 187 232 205 221 260 271 277 296 322 344 352 349 356 15 29 35 35 34 31 28 26 23 22 18 18 15 14 12 12 13 12 11 13 17 16 14 4 2 360 1 3 11
174 201 241 210 216 252 275 261 258 299 340 349 355 11 35 44 45 44 39 34 31 27 23 20 18 15 12 10 9 7 8 10 10 11 13 16 10 3 1 2 3 4 5
188 198 192 177 218 236 214 212 213 174 44 355 15 46 41 45 46 40 37 33 28 25 23 21 18 14 10 8 7 7 7 3 6 14 13 20 2 1 1 4 5 5 7
201 209 200 187 220 210 188 161 152 150 109 101 74 55 49 40 38 37 33 30 28 26 22 21 18 16 15 13 10 6 4 5 7 13 14 12 6 5 10 9 8 8 10
221 228 208 211 216 211 193 191 183 175 144 126 90 61 48 37 29 29 29 28 26 23 21 19 17 16 16 12 10 10 11 9 14 14 22 13 13 13 18 15 15 17 17